DMSP 5D-2 F13 DEB, 40678

Orbit data source: Space-Track

DMSP 5D-2 F13 DEB, 40678 is space debris in SSO originally from a launch on Fri, 24 Mar 1995 UTC launched from the Air Force Western Test Range (AFWTR). Debris objects in space refer to the collection of defunct objects orbiting the Earth. Examples of debris include non-operational satellites, rocket bodies, and fragments generated from explosions, collisions, or faulty payload assembly.

Loading next visibility...
Identifier
40678, 1995-015FS
Orbit
SSO
Country
Flag of USUS
Related business
Manufacturer
Unknown
Mission
Spacecraft
Bus & Motor
Unknown
Mass
Unknown
Launch date (UTC)
1995-03-24 (31 years ago)
Launch vehicle
Unknown
Launch site
Air Force Western Test Range (AFWTR)
Object type
Payload
Rocket body
Debris
Shape & HBR
Unknown shape, 0.1 m
Radar Cross Section
Small (<0.1 m²)

Expand to show TLE details & history
Last TLE update: 17 hours ago

TLE from 17 hours ago
0 DMSP 5D-2 F13 DEB
1 40678U 95015FS  25342.06685451  .00012042  00000-0  29398-2 0  9998
2 40678  98.5935  26.3803 0013984  31.6633 328.5400 14.52706560551914
Epoch: 2025-12-08T01:36Z
TLE epoch observation values (Epoch: 2025-12-08T01:36:16.229Z)
Latitude
-0.00006°
Longitude
-74.75853°
Altitude
711.324 km
Speed
7.504 km/s
True Right ascension
01h 45m 31s
True Declination
0° 00' 00"
Sunlit
Object was in full shadow at epoch
Visualization orbit readout
Latitude
Unknown
Longitude
Unknown
Altitude
Unknown
Speed
Unknown
Apparent Right ascension
Unknown
Apparent Declination
Unknown
Sunlit
N/A
Visualization observer readout
Local Sidereal Time
16:51:27
Azimuth
Unknown
Elevation
Unknown
Doppler factor
Unknown
Orbital elements
Apogee altitude
723.849 km
Perigee altitude
704.014 km
Semi-major axis
7,092.069 km
Eccentricity
0.0014
Inclination
98.5935°
RAAN
26.3803°
Arg. of periapsis
31.6633°
True anomaly
328.45624°
Mean anomaly
328.54°
Eccentric anomaly
328.49813°
Mean motion
3.63399 °/min
Orbital period
99.06 mins
BSTAR
0.0029398
Loading maneuver chart data...
Computing Atmospheric mass density...

Documentation

Showing up to 5 results
|